Location: *
(35.2348°S, 91.3916°E)
Time: 21:33:36
(UTC+00:00)

Cosmos 1802 Rocket - Pass Details

Date: 23 October 2019
Orbit: 954 x 1011 km, 82.9° (Epoch: 19 November)

Event Time Altitude Azimuth Distance (km) Brightness Sun altitude
Rises 13:32:19 0° 4° (N) 3,674 6.7 -15.4°
Reaches altitude 10° 13:34:50 10° 7° (N) 2,725 6.0 -15.9°
Maximum altitude 13:41:01 66° 87° (E) 1,063 3.9 -17.0°
Drops below altitude 10° 13:47:10 10° 167° (SSE) 2,724 6.5 -18.1°
Sets 13:49:42 0° 170° (S) 3,672 7.3 -18.6°
